Flag for U.S.A. Weather past 2 weeks in Salinas, California, U.S.A.

Now
59 °F

Fog.


Feels Like: 59 °F
Forecast: 54 / 79 °F
Wind: 5 mph from North

Location: Salinas Municipal Airport

Current Time: Jul 29, 2015 at 7:15:53 AM

Latest Report: Jul 29, 2015 at 6:53 AM


Visibility: 3 mi

Pressure: 29.95 "Hg

Humidity: 93%

Dew point: 57 °F

Location of SalinasLocation

Historic Weather in Salinas — Graph

°F

Salinas temperature yesterday

Maximum temperature yesterday: 77 °F (at 11:53 AM)
Minimum temperature yesterday: 54 °F (at 4:53 AM)
Average temperature yesterday: 65 °F

Past Weeks' High & Low Weather Summary

 TemperatureHumidityPressure
High89 °F (Jul 20, 11:53 AM)96% (Jul 29, 2:53 AM)30.14 "Hg (Jul 29, 2:53 AM)
Low54 °F (Jul 28, 4:53 AM)41% (Jul 20, 11:53 AM)29.84 "Hg (Jul 17, 6:53 PM)
Average65 °F73%29.98 "Hg
* Reported Jul 14 5:53 AM — Jul 29 5:53 AM, Salinas, Weather by CustomWeather, © 2015

Note: Actual official high and low records may vary slightly from our data, if they occured in-between our weather recording intervals... More about our weather records

Advertising

Salinas weather history for previous 24 hours

 ConditionsComfort  
Time TempWeatherWind HumidityBarometerVisibility
5:53 AM
Wed, Jul 29
59 °FFog.No wind93%29.93 "Hg4 mi
4:53 AM59 °FFog.No wind93%29.92 "Hg2 mi
3:53 AM60 °FFog.5 mph93%29.91 "Hg4 mi
2:53 AM59 °FFog.No wind96%29.91 "Hg1 mi
1:53 AM60 °FFog.No wind93%29.91 "Hg4 mi
12:53 AM61 °FFog.No wind90%29.92 "Hg5 mi
11:53 PM
Tue, Jul 28
61 °FFog.3 mph90%29.93 "Hg5 mi
10:53 PM62 °FFog.5 mph86%29.93 "Hg6 mi
9:53 PM63 °FClear.7 mph84%29.93 "Hg6 mi
8:53 PM65 °FSunny.8 mph78%29.90 "Hg7 mi
7:53 PM67 °FSunny.13 mph71%29.90 "Hg6 mi
6:53 PM70 °FSunny.10 mph64%29.89 "Hg7 mi
5:53 PM71 °FSunny.12 mph61%29.89 "Hg7 mi
4:53 PM72 °FSunny.14 mph57%29.89 "Hg8 mi
3:53 PM71 °FSunny.15 mph59%29.90 "Hg9 mi
2:53 PM74 °FSunny.15 mph53%29.90 "Hg9 mi
1:53 PM74 °FSunny.15 mph53%29.91 "Hg8 mi
12:53 PM75 °FSunny.15 mph54%29.92 "Hg9 mi
11:53 AM77 °FSunny.10 mph50%29.92 "Hg8 mi
10:53 AM76 °FSunny.No wind47%29.92 "Hg9 mi
9:53 AM68 °FSunny.No wind63%29.93 "Hg7 mi
8:53 AM63 °FSunny.3 mph75%29.94 "Hg5 mi
7:53 AM58 °FFog.No wind90%29.93 "Hg4 mi
Weather by CustomWeather, © 2015

See weather overviewHow to use our weather pages